Tracking 18032 objects as of 25-March-2017
HD Live streaming from Space Station
objects crossing your sky now

SL-14 R/B

Track SL-14 R/B now!
10-day predictions
SL-14 R/B is classified as:


NORAD ID: 11267
Int'l Code: 1979-011B
Perigee: 596.4 km
Apogee: 621.1 km
Inclination: 82.5 °
Period: 96.7 minutes
Semi major axis: 6979 km
RCS: 4.4018 m2 (large)
Launch date: February 12, 1979
Source: Commonwealth of Independent States (former USSR) (CIS)
Launch site: PLESETSK MISSILE AND SPACE COMPLEX (PKMTR)

Note: This is a ROCKET BODY
Your satellite tracking list
Your tracking list is empty





NASA's NSSDC Master Catalog

Two Line Element Set (TLE):
1 11267U 79011B   17082.88038330 +.00000129 +00000-0 +10987-4 0  9997
2 11267 082.5243 310.0251 0017679 148.9616 211.2651 14.88825778041573
Source of the keplerian elements: AFSPC